STARLINK-11171, 60069

Orbit data source: Space-Track

STARLINK-11171, 60069 is a payload satellite owned by SpaceX/Seattle (US) in LEO that was launched on Wed, 19 Jun 2024 UTC via an FALCON 9 launch vehicle from the Air Force Western Test Range (AFWTR). Payload-class satellites include a variety of spacecraft equipped with specific instruments for various scientific and technological missions. These include communications satellites like Starlink; space stations such as the ISS; scientific satellites like the Hubble; Earth observation satellites from companies like Planet Labs, Umbra, and HawkEye 360; GPS; miniature CubeSats for education and research; and military/defense satellites.

Loading next visibility...
Identifier
60069, 2024-113L
Orbit
LEO
Last TLE update
1 day ago
Origin
Manufacturer
SpaceX/Seattle
Mission
Operational Commercial Communications
Bus & Motor
STARLINK V2M, Unknown motor
Mass
730 kg wet, ~700 kg dry
Launch date (UTC)
2024-06-19 (11 months ago)
Launch vehicle
FALCON 9
Launch site
Air Force Western Test Range (AFWTR)
Object type
Payload
Rocket body
Debris
Shape & HBR
Box + 2 Pan, 29 m
Radar Cross Section
33.884 m², Large (>1 m²)

Expand to show TLE details & history

TLE from 1 day ago
0 STARLINK-11171
1 60069U 24113L   25130.60159678  .00009460  00000-0  82795-4 0  9999
2 60069  53.1574 245.6267 0001194  66.1289 293.9854 15.69726967 51955
Epoch: 2025-05-10T14:26Z
Definitive object data (Epoch: 2025-05-10T14:26:17.961Z)
Latitude
-0.00003°
Longitude
160.4108°
Altitude
360.266 km
Speed
7.695 km/s
True Right ascension
16h 22m 30s
True Declination
0° 00' 00"
Sunlit
Object was in full shadow at TLE epoch
Visualization TLE readout
Latitude
52.2195°
Longitude
-131.63929°
Altitude
365.125 km
Speed
7.697 km/s
Apparent Right ascension
18h 17m 03s
Apparent Declination
9° 33' 17"
Sunlit
Object is in daylight
Visualization observer readout
Local Sidereal Time
04:07:34
Azimuth
321.418° NNW
Elevation
-32.162°
Doppler factor
1
Orbital elements
Apogee altitude
360.744 km
Perigee altitude
359.135 km
Semi-major axis
6,738.076 km
Eccentricity
0.0001194
Inclination
53.1574°
RAAN
245.6267°
Arg. of periapsis
66.1289°
True anomaly
293.9729°
Mean anomaly
293.9854°
Eccentric anomaly
293.97915°
Mean motion
3.92409 °/min
BSTAR
0.000082795
Orbital period
91.74 mins
Loading maneuver chart data...
Loading SW <> Apogee altitude chart data...
Loading historical data...
Loading historical data...
Loading historical data...
Loading historical data...
Loading historical data...
Loading historical data...
Loading historical data...

STARLINK-11171 Visibility forecast

Observer location: undefined°, undefined°

Span
Click to sort rows by Start time (UTC) header in descending order
Start Az.
Max El. time (UTC)
Max El. Az.
Max El.
End time (UTC)
End Az.
4 mins2025-05-12 09:23:39.733Z193.296° SSW2025-05-12 09:25:39.733Z133.972° SE28.43°2025-05-12 09:27:39.733Z74.509° E
|